Location: Casco Millpond
(44.5581°N, 87.6111°W)
Time: 08:45:48
(UTC+00:00)

Cosmos 1110 Rocket - Pass Details

Date: 16 January 2026
Orbit: 749 x 776 km, 74.0° (Epoch: 10 February)

Event Time Altitude Azimuth Distance (km) Brightness Sun altitude
Rises 23:07:50 0° 186° (S) 3,214 7.7 -5.6°
Reaches altitude 10° 23:10:14 10° 182° (S) 2,288 6.8 -6.0°
Maximum altitude 23:15:17 54° 106° (ESE) 916 4.2 -6.8°
Drops below altitude 10° 23:20:20 10° 29° (NNE) 2,288 6.0 -7.7°
Enters shadow 23:22:35 - 26° (NNE) 3,158 6.7 -8.0°
